Regional Weather Roundup
Issued by NWS State College, PA

Home | Current Version | Previous Version | Text Only | Print | Product List | Glossary On
Versions: 1 2 3 4 5 6 7 8 9 10 11 12 13 14 15 16 17 18 19 20 21 22 23 24 25 26 27 28 29 30 31 32 33 34 35 36 37 38 39 40 41 42 43 44 45 46 47 48 49 50
258
ASUS41 KCTP 211203
RWRCTP

REGIONAL WEATHER ROUNDUP
NATIONAL WEATHER SERVICE STATE COLLEGE PA
700 AM EST TUE FEB 21 2017

Note: "fair" indicates few or no clouds below 12,000 feet with no
significant weather and/or obstructions to visibility.

* = STATION THAT DOES NOT REPORT PRECIPITATION /E.G. RAIN...SNOW...ETC/
    THUNDER OR FOG.

PAZ002>004-007>009-013>016-020>023-029>032-211300-
WESTERN PENNSYLVANIA

CITY           SKY/WX    TMP DP  RH WIND       PRES   REMARKS
ERIE           CLOUDY    48  27  44 S20G29    30.02S
MEADVILLE      PTCLDY    43  26  51 VRB5      30.06F
FRANKLIN*      PTCLDY    39  25  56 SE12      30.11S
NEW CASTLE     FAIR      46  30  53 CALM      30.08F
BEAVER COUNTY  NOT AVBL
BUTLER*        PTCLDY    45  28  53 SE9       30.10S
PITTSBURGH INT MOCLDY    48  32  53 SE7       30.08S
PITTSBURGH     CLOUDY    48  29  47 SE9       30.08F
INDIANA*       CLEAR     45  27  49 SE10G21   30.15F
LATROBE        NOT AVBL
WASHINGTON CO* CLOUDY    46  30  53 S3        30.10S
$$

PAZ004>006-010>012-017>019-024>028-033>037-041-042-045-046-049>053-211300-
CENTRAL PENNSYLVANIA

CITY           SKY/WX    TMP DP  RH WIND       PRES   REMARKS
BRADFORD       CLOUDY    35  17  47 S8        30.13F
DUBOIS         CLOUDY    38  19  46 SE14G23   30.12F
CLEARFIELD       N/A    N/A N/A N/A MISG      30.21R
JOHNSTOWN      CLOUDY    38  24  57 SE12      30.15F
ALTOONA        CLOUDY    39  20  46 S6        30.23F
STATE COLLEGE  NOT AVBL
WILLIAMSPORT   CLOUDY    30  19  63 MISG      30.31S
SELINSGROVE    PTCLDY    27  22  81 NW3       30.33F
FT INDIANTOWN  CLOUDY    30  21  69 NE3       30.35S
CAPITAL CITY   CLOUDY    34  17  50 CALM      30.35S
HARRISBURG     MOCLDY    34  18  52 SE6       30.35S
YORK           PTCLDY    27  24  89 CALM      30.34R
$$

PAZ038>040-043-044-047-048-054-055-060>062-067>071-211300-
EASTERN PENNSYLVANIA

CITY           SKY/WX    TMP DP  RH WIND       PRES   REMARKS
SCRANTON       CLOUDY    33  11  39 CALM      30.30S
MOUNT POCONO   CLOUDY    25  10  53 SE6       30.27S
ALLENTOWN      CLOUDY    26  17  68 CALM      30.37S
QUAKERTOWN*    MOSUNNY   25  19  80 CALM      30.36S
READING        CLOUDY    30  21  69 NW5       30.36R
LANCASTER      CLOUDY    33  19  56 E3        30.36R
COATESVILLE    PTSUNNY   32  16  51 CALM      30.36S
POTTSTOWN      CLOUDY    27  16  63 CALM      30.38R
BLUE BELL      CLOUDY    28  23  80 CALM      30.36R
DOYLESTOWN     CLOUDY    29  17  61 CALM      30.36R
WILLOW GROVE   NOT AVBL
NORTH PHILA    CLOUDY    33  17  51 N3        30.39R
PHILADELPHIA   CLOUDY    35  18  49 NE5       30.38S
$$




USA.gov is the U.S. government's official web portal to all federal, state and local government web resources and services.